This demonstration page uses our WeatherBlox Daily Observations layout. Learn more.

Hourly Observations for August 16, 2017

Temp ( °F °C ) Dew Point ( °F °C ) Humidity (%) Winds ( mph kmh ) Pressure ( in mb ) Visibility ( mi km ) Precip ( " mm )
12:15 am 00:15 Cloudy 67 19.2 63 17.2 88 88 ENE 22 35 29.77 1008 10 16.09344 0 0
12:35 am 00:35 Cloudy 67 19.7 63 17 85 85 ESE 8 13 29.77 1008 10 16.09344 0 0
12:55 am 00:55 Cloudy 66 19 62 16.5 86 86 NE 10 17 29.8 1009 10 16.09344 0 0
1:15 am 01:15 Cloudy 65 18.6 61 16.2 86 86 ENE 15 24 29.77 1008 10 16.09344 0 0
1:35 am 01:35 Cloudy with Nearby Thunderstorms 65 18.3 61 16.3 88 88 ENE 9 15 29.77 1008 10 16.09344 0 0
1:55 am 01:55 Cloudy 65 18.3 61 16.3 88 88 E 12 19 29.77 1008 10 16.09344 0 0
2:15 am 02:15 Cloudy 65 18.5 61 16.3 87 87 NW 14 22 29.85 1011 10 16.09344 0 0
2:35 am 02:35 Cloudy 62 16.5 59 15 91 91 NNW 17 28 29.85 1011 4 6.437376 0.08 2.032
2:55 am 02:55 Cloudy with Heavy Thunderstorms 61 16.3 60 15.5 95 95 N 20 31 29.83 1010 3 4.828032 0.38 9.652
3:15 am 03:15 Cloudy with Thunderstorms 61 16 60 15.4 96 96 N 17 28 29.8 1009 7 11.265408 0.06 1.524
3:35 am 03:35 Cloudy with Light Thunderstorms 61 16.1 60 15.5 96 96 N 14 22 29.8 1009 10 16.09344 0.06 1.524
3:55 am 03:55 Cloudy with Light Thunderstorms 62 16.5 60 15.6 94 94 NNW 10 17 29.8 1009 10 16.09344 0.07 1.778
4:15 am 04:15 Cloudy with Nearby Thunderstorms 62 16.5 60 15.3 93 93 NNW 12 19 29.8 1009 10 16.09344 0.03 0.762
4:35 am 04:35 Cloudy with Thunderstorms 62 16.5 60 15.3 93 93 N 8 13 29.8 1009 7 11.265408 0.08 2.032
4:55 am 04:55 Cloudy with Nearby Thunderstorms 62 16.5 59 15.2 92 92 NE 13 20 29.8 1009 7 11.265408 0.15 3.81
5:15 am 05:15 Cloudy with Thunderstorms 61 16.3 60 15.3 94 94 ENE 14 22 29.77 1008 7 11.265408 0.06 1.524
5:35 am 05:35 Cloudy 62 16.5 60 15.5 94 94 E 9 15 29.77 1008 10 16.09344 0.09 2.286
5:55 am 05:55 Cloudy with Rain 62 16.5 60 15.5 94 94 ESE 5 7 29.77 1008 10 16.09344 0.12 3.048
6:15 am 06:15 Cloudy 62 16.5 60 15.5 94 94 E 13 20 29.74 1007 10 16.09344 0.04 1.016
6:35 am 06:35 Partly Cloudy with Light Rain 61 16.2 60 15.5 96 96 ENE 14 22 29.68 1005 10 16.09344 0.06 1.524
6:55 am 06:55 Sunny 62 16.5 60 15.3 93 93 SSE 3 6 29.71 1006 10 16.09344 0.06 1.524
7:15 am 07:15 Partly Cloudy 62 16.5 59 15 91 91 W 9 15 29.74 1007 10 16.09344 0 0
7:35 am 07:35 Sunny 61 16.2 59 15 93 93 W 8 13 29.77 1008 10 16.09344 0 0
7:55 am 07:55 Sunny 61 16 59 15 94 94 WSW 7 11 29.8 1009 10 16.09344 0 0
8:15 am 08:15 Mostly Cloudy 61 16 59 15 94 94 W 7 11 29.83 1010 10 16.09344 0 0
8:35 am 08:35 Cloudy 62 16.6 60 15.6 94 94 WNW 8 13 29.83 1010 10 16.09344 0 0
8:55 am 08:55 Cloudy 63 17.4 60 15.7 90 90 WNW 7 11 29.85 1011 10 16.09344 0 0
9:15 am 09:15 Cloudy 64 17.6 60 15.4 87 87 WNW 12 19 29.85 1011 10 16.09344 0 0
9:35 am 09:35 Cloudy 64 18 59 15.1 83 83 NW 9 15 29.85 1011 10 16.09344 0 0
9:55 am 09:55 Partly Cloudy 67 19.3 60 15.7 80 80 NW 9 15 29.83 1010 10 16.09344 0 0
10:15 am 10:15 Sunny 68 20 59 15.2 74 74 WNW 15 24 29.83 1010 10 16.09344 0 0
10:35 am 10:35 Sunny 68 20.2 59 15.2 73 73 NW 12 19 29.83 1010 10 16.09344 0 0
10:55 am 10:55 Partly Cloudy 70 21.1 59 15.1 69 69 NW 16 26 29.83 1010 10 16.09344 0 0
11:15 am 11:15 Sunny 69 20.8 58 14.7 68 68 NW 13 20 29.8 1009 10 16.09344 0 0
11:35 am 11:35 Sunny 69 20.5 59 14.8 70 70 NW 10 17 29.83 1010 10 16.09344 0 0
11:55 am 11:55 Sunny 71 21.6 60 15.7 69 69 WNW 12 19 29.83 1010 10 16.09344 0 0
12:15 pm 12:15 Partly Cloudy 71 21.5 59 15.1 67 67 WNW 15 24 29.83 1010 10 16.09344 0 0
12:35 pm 12:35 Partly Cloudy 72 22.2 60 15.4 65 65 WNW 14 22 29.8 1009 10 16.09344 0 0
12:55 pm 12:55 Mostly Cloudy 72 22.4 60 15.3 64 64 NW 14 22 29.8 1009 10 16.09344 0 0
1:15 pm 13:15 Mostly Cloudy 73 22.7 59 15.1 62 62 WNW 12 19 29.8 1009 10 16.09344 0 0
1:35 pm 13:35 Mostly Cloudy 73 22.8 60 15.4 63 63 NW 10 17 29.8 1009 10 16.09344 0 0
1:55 pm 13:55 Mostly Cloudy 74 23.1 60 15.7 63 63 NNW 9 15 29.8 1009 10 16.09344 0 0
2:15 pm 14:15 Partly Cloudy 74 23.5 61 16 63 63 NW 8 13 29.8 1009 10 16.09344 0 0
2:35 pm 14:35 Partly Cloudy 74 23.4 60 15.3 61 61 WNW 6 9 29.8 1009 10 16.09344 0 0
2:55 pm 14:55 Partly Cloudy 74 23.6 60 15.6 61 61 NW 6 9 29.8 1009 10 16.09344 0 0
3:15 pm 15:15 Partly Cloudy 76 24.2 60 15.3 58 58 WNW 12 19 29.8 1009 10 16.09344 0 0
3:35 pm 15:35 Partly Cloudy 76 24.2 61 15.9 60 60 NW 6 9 29.77 1008 10 16.09344 0 0
3:55 pm 15:55 Partly Cloudy 77 24.9 60 15.3 55 55 WNW 10 17 29.77 1008 10 16.09344 0 0
4:15 pm 16:15 Sunny 77 25 59 15.2 55 55 WNW 9 15 29.77 1008 10 16.09344 0 0
4:35 pm 16:35 Sunny 78 25.5 61 15.9 55 55 NW 10 17 29.77 1008 10 16.09344 0 0
4:55 pm 16:55 Partly Cloudy 76 24.5 60 15.3 57 57 WNW 10 17 29.8 1009 10 16.09344 0 0
5:15 pm 17:15 Mostly Cloudy with Nearby Thunderstorms 71 21.9 60 15.4 67 67 NNW 18 30 29.83 1010 10 16.09344 0 0
5:35 pm 17:35 Cloudy with Light Rain 68 20.2 62 16.4 79 79 NNW 13 20 29.83 1010 10 16.09344 0.01 0.254
5:55 pm 17:55 Mostly Cloudy with Light Rain 69 20.7 62 16.9 79 79 NNW 7 11 29.83 1010 10 16.09344 0.01 0.254
6:15 pm 18:15 Mostly Cloudy 68 20 62 16.6 81 81 NNW 5 7 29.85 1011 10 16.09344 0.01 0.254
6:35 pm 18:35 Partly Cloudy 68 20 64 17.5 86 86 Calm 29.85 1011 10 16.09344 0.01 0.254
6:55 pm 18:55 Partly Cloudy 68 20 64 17.5 86 86 NW 3 6 29.85 1011 10 16.09344 0.01 0.254
7:15 pm 19:15 Sunny 69 20.8 63 17.3 80 80 NNW 3 6 29.85 1011 10 16.09344 0 0
7:35 pm 19:35 Sunny 69 20.8 63 17.4 81 81 NNW 5 7 29.85 1011 10 16.09344 0 0
7:55 pm 19:55 Partly Cloudy 69 20.6 62 16.9 79 79 NNW 8 13 29.85 1011 10 16.09344 0 0
8:15 pm 20:15 Sunny 68 19.8 60 15.5 76 76 NNW 8 13 29.85 1011 10 16.09344 0 0
8:35 pm 20:35 Clear 66 18.8 60 15.5 81 81 NNW 6 9 29.88 1012 10 16.09344 0 0
8:55 pm 20:55 Clear 64 18 60 15.6 86 86 NW 6 9 29.88 1012 10 16.09344 0 0
9:15 pm 21:15 Clear 63 17.2 60 15.5 90 90 NW 5 7 29.88 1012 10 16.09344 0 0
9:35 pm 21:35 Clear 62 16.7 59 15.1 90 90 NW 5 7 29.88 1012 10 16.09344 0 0
9:55 pm 21:55 Clear 62 16.6 59 15.1 91 91 Calm 29.91 1013 10 16.09344 0 0
10:15 pm 22:15 Clear 62 16.5 59 15 91 91 NW 5 7 29.91 1013 10 16.09344 0 0
10:35 pm 22:35 Clear 61 16.2 58 14.6 90 90 WNW 3 6 29.91 1013 10 16.09344 0 0
10:55 pm 22:55 Clear 60 15.6 58 14.5 93 93 WNW 5 7 29.94 1014 10 16.09344 0 0
11:15 pm 23:15 Clear 60 15.8 58 14.3 91 91 WNW 5 7 29.91 1013 10 16.09344 0 0
11:35 pm 23:35 Clear 60 15.7 58 14.2 91 91 WNW 5 7 29.91 1013 10 16.09344 0 0
11:55 pm 23:55 Clear 60 15.6 57 13.8 89 89 WNW 6 9 29.94 1014 10 16.09344 0 0

Powered by AerisWeather